STARLINK-1210, 45207

Orbit data source: Space-Track

STARLINK-1210, 45207 is a payload satellite owned by SpaceX/Seattle (US) in LEO that was launched on Mon, 17 Feb 2020 UTC via an FALCON 9 launch vehicle from the Air Force Eastern Test Range (AFETR). Payload-class satellites include a variety of spacecraft equipped with specific instruments for various scientific and technological missions. These include communications satellites like Starlink; space stations such as the ISS; scientific satellites like the Hubble; Earth observation satellites from companies like Planet Labs, Umbra, and HawkEye 360; GPS; miniature CubeSats for education and research; and military/defense satellites.

Loading next visibility...
Identifier
45207, 2020-012AF
Orbit
LEO
Country
Flag of USUS
Related business
Manufacturer
SpaceX/Seattle
Mission
Partially operational Commercial Communications
Bus & Motor
STARLINK, Unknown motor
Mass
260 kg wet, ~248 kg dry
Launch date (UTC)
2020-02-17 (6 years ago)
Launch vehicle
FALCON 9
Launch site
Air Force Eastern Test Range (AFETR)
Object type
Payload
Rocket body
Debris
Shape & HBR
Box + 1 Pan, 10.1 m
Radar Cross Section
13.562 m², Large (>1 m²)

Expand to show TLE details & history
Last TLE update: 2 days ago

TLE from 2 days ago
0 STARLINK-1210
1 45207U 20012AF  25301.03526511  .00144351  00000-0  20275-2 0  9993
2 45207  53.0240 203.1954 0012865  55.0660 305.1556 15.55657393315959
Epoch: 2025-10-28T00:50Z
TLE epoch observation values (Epoch: 2025-10-28T00:50:46.905Z)
Latitude
-0.00008°
Longitude
153.87137°
Altitude
396.124 km
Speed
7.677 km/s
True Right ascension
13h 32m 46s
True Declination
0° 00' 00"
Sunlit
Object was in daylight at epoch
Visualization orbit readout
Latitude
Unknown
Longitude
Unknown
Altitude
Unknown
Speed
Unknown
Apparent Right ascension
Unknown
Apparent Declination
Unknown
Sunlit
N/A
Visualization observer readout
Local Sidereal Time
09:48:51
Azimuth
Unknown
Elevation
Unknown
Doppler factor
Unknown
Orbital elements
Apogee altitude
409.244 km
Perigee altitude
391.803 km
Semi-major axis
6,778.661 km
Eccentricity
0.00129
Inclination
53.024°
RAAN
203.1954°
Arg. of periapsis
55.066°
True anomaly
305.03496°
Mean anomaly
305.1556°
Eccentric anomaly
305.09529°
Mean motion
3.8889 °/min
Orbital period
92.57 mins
BSTAR
0.0020275
Loading maneuver chart data...
Computing Atmospheric mass density...

Documentation

Showing up to 5 results
|